Location: ??
(34.9170°N, 135.5016°E)
Time: 02:13:32
(UTC+00:00)

CENTAUR R/B - Visible Passes

Search period start: 27 February 2021 00:00
Search period end: 09 March 2021 00:00
Orbit: 742 x 1446 km, 63.5° (Epoch: 25 February)

Date Brightness Start Highest point End Pass type
(mag) Time Alt. Az. Time Alt. Az. Time Alt. Az.
27 Feb 4.7 20:35:26 10° NNW 20:42:53 35° NE 20:50:48 10° ESE visible
28 Feb 5.2 19:47:39 10° N 19:53:59 24° NE 20:00:44 10° E visible
01 Mar 5.4 19:00:10 10° N 19:04:52 16° NE 19:09:49 10° ENE visible
01 Mar 4.0 20:49:05 10° NNW 20:57:20 59° NE 21:06:07 10° SE visible
02 Mar 5.6 18:13:42 10° NNE 18:15:30 11° NNE 18:17:20 10° NE visible
02 Mar 4.6 20:01:04 10° NNW 20:08:43 39° NE 20:16:51 10° ESE visible
03 Mar 5.0 19:13:15 10° N 19:19:53 26° NE 19:26:56 10° E visible
04 Mar 4.0 10:51:31 10° S 10:52:32 16° S 10:52:32 16° S visible
04 Mar 5.4 18:25:40 10° N 18:30:49 18° NE 18:36:15 10° ENE visible
04 Mar 3.7 20:14:47 10° NNW 20:23:08 65° ENE 20:31:59 10° SE visible
05 Mar 3.5 10:04:50 10° SSE 10:08:00 20° ESE 10:08:00 20° ESE visible
05 Mar 4.1 11:53:14 10° SW 11:55:21 24° WSW 11:55:21 24° WSW visible
05 Mar 5.6 17:38:45 10° N 17:41:30 12° NNE 17:44:21 10° NE visible
05 Mar 4.4 19:26:44 10° NNW 19:34:33 43° NE 19:42:53 10° ESE visible
06 Mar 2.2 11:04:48 10° SSW 11:10:21 89° ESE 11:11:19 65° NNE visible
06 Mar 5.1 12:58:09 10° WNW 12:58:44 12° WNW 12:58:44 12° WNW visible
06 Mar 4.9 18:38:51 10° NNW 18:45:46 28° NE 18:53:07 10° ESE visible
06 Mar 3.3 20:28:49 10° NW 20:37:17 77° WSW 20:46:12 10° SSE visible
07 Mar 2.5 10:17:02 10° S 10:22:16 47° ESE 10:28:07 11° NE visible
07 Mar 4.2 12:08:14 10° WSW 12:13:11 27° NW 12:15:39 22° N visible
07 Mar 5.3 17:51:12 10° N 17:56:45 19° NE 18:02:37 10° E visible
07 Mar 3.5 19:40:30 10° NNW 19:48:55 71° ENE 19:57:49 10° SE visible
08 Mar 3.3 09:30:05 10° SSE 09:34:25 24° ESE 09:39:16 10° NE visible
08 Mar 3.3 11:19:04 10° SW 11:24:29 45° NW 11:30:53 10° NNE visible
08 Mar 5.4 13:16:19 10° NW 13:17:16 10° NNW 13:18:15 10° NNW visible
08 Mar 5.6 17:04:02 10° N 17:07:30 13° NNE 17:11:06 10° ENE visible
08 Mar 4.1 18:52:23 10° NNW 19:00:22 47° NE 19:08:51 10° SE visible
08 Mar 3.6 20:43:15 10° NW 20:51:12 44° WSW 20:59:26 10° S visible
